Weather in Naystenyarvi

Russia / Republic of Karelia     62°18′12″N   32°40′47″E
temp.,
°C
wind,
m/s
gust,
m/s
humid.,
%
clouds,
%
prec.,
mm/h
press.,
hPa
HPBL,
m
3 august, tue
tue300:00+14ne3998100 5.6 998375
03:00+14ene61397100 16.6 9921012
06:00+15ese51198100 3.5 988660
09:00+15ssw3799100 9.1 986600
12:00+14sw71297100 1.7 9891078
15:00+13sw7139494 2.1 994875
18:00+12wsw6119092 0.4 996997
21:00+10wsw61189100 0.6 999974
4 august, wed
wed400:00+9wsw51195100 0.6 1001895
03:00+10wsw61292100 0.9 10031033
06:00+10wsw61386100 0.1 1005919
09:00+14w613625 0.1 10061395
12:00+17w711405 0.0 10081943
15:00+18wnw610368 0.0 10102469
18:00+18wnw484251 0.0 10122290
21:00+12wsw226632 0.0 101432
5 august, thu
thu500:00+12wsw256890 0.0 1015116
03:00+9wsw117927 0.0 101610
06:00+11n007098 0.0 101728
09:00+15ese115887 0.0 1018276
12:00+20s123688 0.0 10172594
15:00+18se124874 0.0 1018603
18:00+17e224934 0.0 1018429
21:00+14se236678 0.0 101950
6 august, fri
fri600:00+14e226596 0.0 101935
03:00+11ese117939 0.0 102017
06:00+12ene137285 0.0 102089
09:00+16ene35546 0.0 1020480
12:00+20e333762 0.0 10192442
15:00+17e3654100 0.0 1019429
18:00+19ene34396 0.0 10181778
21:00+13ne24625 0.0 101961
7 august, sat
sat700:00+10ene25715 0.0 101976
03:00+10ene26765 0.0 1019102
06:00+11ene310833 0.0 1019249
09:00+16e5854100 0.0 1019906
12:00+19e6938100 0.0 10181595
15:00+20e6936100 0.0 10171684
18:00+18e51042100 0.0 10161567
21:00+16e4115193 0.0 1016634